Location: Northcutt
(34.7304°N, 84.4305°W)
Time: 14:43:48
(UTC+00:00)

Hubble Space Telescope - Pass Details

Date: 14 August 2022
Orbit: 531 x 535 km, 28.5° (Epoch: 27 September)

Event Time Altitude Azimuth Distance (km) Brightness Sun altitude
Rises 02:31:31 0° 260° (W) 2,668 4.9 -23.2°
Reaches altitude 10° 02:34:29 10° 238° (WSW) 1,776 3.6 -23.7°
Enters shadow 02:35:37 14° 223° (SW) 1,554 3.1 -23.8°
